| time (UTC) | temp F | wind direction | speed MPH | gust MPH | rain 1hr in | rain 24hr in | rain mn in | humidity % | barometer mb |
| 20260505004022 | 66 | 57 | 1.0 | 2.0 | 0.00 | 0.00 | 0.00 | 34 | 1003.8 |
| 20260505003520 | 66 | 57 | 1.0 | 2.0 | 0.00 | 0.00 | 0.00 | 33 | 1004.0 |
| 20260505003039 | 66 | 57 | 2.0 | 4.0 | 0.00 | 0.00 | 0.00 | 32 | 1004.0 |
| 20260505002517 | 67 | 55 | 2.0 | 4.0 | 0.00 | 0.00 | 0.00 | 32 | 1004.2 |
| 20260505002056 | 67 | 65 | 5.0 | 7.0 | 0.00 | 0.00 | 0.00 | 33 | 1004.1 |
| 20260505001534 | 67 | 42 | 3.0 | 7.0 | 0.00 | 0.00 | 0.00 | 31 | 1004.1 |
| 20260505001033 | 67 | 64 | 4.0 | 8.0 | 0.00 | 0.00 | 0.00 | 33 | 1004.1 |
| 20260505000531 | 68 | 63 | 4.0 | 7.0 | 0.00 | 0.00 | 0.00 | 31 | 1004.2 |
| 20260505000029 | 69 | 8 | 3.0 | 6.0 | 0.00 | 0.00 | 0.00 | 31 | 1004.3 |
| 20260504235527 | 70 | 5 | 4.0 | 7.0 | 0.00 | 0.00 | 0.00 | 30 | 1004.3 |
| 20260504235026 | 71 | 4 | 5.0 | 9.0 | 0.00 | 0.00 | 0.00 | 30 | 1004.3 |
| 20260504234524 | 70 | 4 | 6.0 | 15.0 | 0.00 | 0.00 | 0.00 | 31 | 1004.2 |
| 20260504234023 | 69 | 7 | 6.0 | 13.0 | 0.00 | 0.00 | 0.00 | 31 | 1004.3 |
| 20260504233521 | 67 | 11 | 6.0 | 13.0 | 0.00 | 0.00 | 0.00 | 34 | 1004.4 |
| 20260504233019 | 66 | 19 | 7.0 | 15.0 | 0.00 | 0.00 | 0.00 | 35 | 1004.4 |
| 20260504232517 | 66 | 13 | 9.0 | 18.0 | 0.00 | 0.00 | 0.00 | 35 | 1001.8 |
| 20260504232016 | 66 | 10 | 12.0 | 22.0 | 0.00 | 0.00 | 0.00 | 35 | 1004.0 |
| 20260504231535 | 67 | 13 | 7.0 | 15.0 | 0.00 | 0.00 | 0.00 | 35 | 1004.3 |
| 20260504231033 | 69 | 4 | 10.0 | 21.0 | 0.00 | 0.00 | 0.00 | 34 | 1004.3 |
| 20260504230532 | 71 | 5 | 8.0 | 17.0 | 0.00 | 0.00 | 0.00 | 32 | 1004.4 |
| 20260504230050 | 72 | 330 | 9.0 | 19.0 | 0.00 | 0.00 | 0.00 | 29 | 1004.3 |
| 20260504225528 | 74 | 315 | 6.0 | 13.0 | 0.00 | 0.00 | 0.00 | 26 | 1004.1 |
| 20260504225046 | 76 | 270 | 5.0 | 11.0 | 0.00 | 0.00 | 0.00 | 23 | 1004.0 |
| 20260504224524 | 79 | 262 | 5.0 | 10.0 | 0.00 | 0.00 | 0.00 | 21 | 1004.1 |
| 20260504224023 | 79 | 305 | 4.0 | 14.0 | 0.00 | 0.00 | 0.00 | 22 | 1003.9 |
| 20260504223521 | 79 | 274 | 6.0 | 13.0 | 0.00 | 0.00 | 0.00 | 22 | 1003.7 |
| 20260504223100 | 79 | 256 | 5.0 | 10.0 | 0.00 | 0.00 | 0.00 | 22 | 1003.8 |
| 20260504222518 | 79 | 271 | 1.0 | 6.0 | 0.00 | 0.00 | 0.00 | 22 | 1003.8 |
| 20260504222016 | 79 | 263 | 3.0 | 7.0 | 0.00 | 0.00 | 0.00 | 22 | 1004.0 |
| 20260504221535 | 79 | 249 | 4.0 | 7.0 | 0.00 | 0.00 | 0.00 | 24 | 1004.0 |
| 20260504221033 | 79 | 240 | 4.0 | 9.0 | 0.00 | 0.00 | 0.00 | 24 | 1004.0 |
| 20260504220531 | 80 | 280 | 3.0 | 7.0 | 0.00 | 0.00 | 0.00 | 23 | 1004.1 |
| 20260504220050 | 80 | 286 | 3.0 | 4.0 | 0.00 | 0.00 | 0.00 | 23 | 1004.2 |
| 20260504215528 | 81 | 252 | 5.0 | 9.0 | 0.00 | 0.00 | 0.00 | 24 | 1003.6 |
| 20260504215107 | 81 | 223 | 4.0 | 6.0 | 0.00 | 0.00 | 0.00 | 26 | 1004.5 |
| 20260504214545 | 82 | 208 | 1.0 | 6.0 | 0.00 | 0.00 | 0.00 | 24 | 1004.5 |
| 20260504214023 | 82 | 201 | 2.0 | 4.0 | 0.00 | 0.00 | 0.00 | 23 | 1004.5 |
| 20260504213522 | 81 | 344 | 3.0 | 4.0 | 0.00 | 0.00 | 0.00 | 26 | 1004.6 |
| 20260504213020 | 81 | 344 | 3.0 | 4.0 | 0.00 | 0.00 | 0.00 | 24 | 1004.7 |
| 20260504212518 | 81 | 295 | 2.0 | 4.0 | 0.00 | 0.00 | 0.00 | 23 | 1004.9 |
| 20260504212017 | 81 | 285 | 3.0 | 4.0 | 0.00 | 0.00 | 0.00 | 23 | 1004.8 |
| 20260504211535 | 80 | 269 | 4.0 | 4.0 | 0.00 | 0.00 | 0.00 | 24 | 1005.0 |
| 20260504211033 | 80 | 256 | 4.0 | 7.0 | 0.00 | 0.00 | 0.00 | 24 | 1005.0 |
| 20260504210532 | 80 | 283 | 3.0 | 7.0 | 0.00 | 0.00 | 0.00 | 26 | 1005.1 |
| 20260504210030 | 80 | 306 | 3.0 | 7.0 | 0.00 | 0.00 | 0.00 | 26 | 1005.0 |
| 20260504205529 | 79 | 289 | 4.0 | 8.0 | 0.00 | 0.00 | 0.00 | 26 | 1005.2 |
| 20260504205027 | 79 | 247 | 1.0 | 4.0 | 0.00 | 0.00 | 0.00 | 25 | 1005.2 |
| 20260504204525 | 79 | 233 | 3.0 | 7.0 | 0.00 | 0.00 | 0.00 | 26 | 1005.3 |
| 20260504204044 | 79 | 268 | 4.0 | 10.0 | 0.00 | 0.00 | 0.00 | 26 | 1005.3 |
| 20260504203522 | 80 | 289 | 4.0 | 10.0 | 0.00 | 0.00 | 0.00 | 26 | 1003.0 |
| 20260504203020 | 79 | 284 | 3.0 | 9.0 | 0.00 | 0.00 | 0.00 | 26 | 1005.5 |
| 20260504202539 | 78 | 299 | 3.0 | 9.0 | 0.00 | 0.00 | 0.00 | 26 | 1005.5 |
| 20260504202016 | 78 | 245 | 4.0 | 7.0 | 0.00 | 0.00 | 0.00 | 26 | 1005.5 |
| 20260504201535 | 79 | 282 | 4.0 | 8.0 | 0.00 | 0.00 | 0.00 | 26 | 1005.7 |
| 20260504201034 | 79 | 295 | 2.0 | 6.0 | 0.00 | 0.00 | 0.00 | 27 | 1005.8 |
| 20260504200532 | 78 | 284 | 4.0 | 8.0 | 0.00 | 0.00 | 0.00 | 27 | 1005.8 |
| 20260504200030 | 78 | 278 | 4.0 | 9.0 | 0.00 | 0.00 | 0.00 | 27 | 1005.8 |
| 20260504195529 | 78 | 287 | 3.0 | 8.0 | 0.00 | 0.00 | 0.00 | 28 | 1005.8 |
| 20260504195027 | 78 | 274 | 5.0 | 9.0 | 0.00 | 0.00 | 0.00 | 27 | 1003.3 |
| 20260504194525 | 78 | 270 | 2.0 | 7.0 | 0.00 | 0.00 | 0.00 | 25 | 1005.9 |
| 20260504194024 | 78 | 295 | 3.0 | 7.0 | 0.00 | 0.00 | 0.00 | 26 | 1005.9 |
| 20260504193542 | 77 | 292 | 5.0 | 10.0 | 0.00 | 0.00 | 0.00 | 28 | 1006.1 |
| 20260504193040 | 77 | 282 | 4.0 | 10.0 | 0.00 | 0.00 | 0.00 | 28 | 1006.2 |
| 20260504192539 | 78 | 263 | 3.0 | 11.0 | 0.00 | 0.00 | 0.00 | 27 | 1006.2 |
| 20260504192017 | 78 | 300 | 3.0 | 8.0 | 0.00 | 0.00 | 0.00 | 27 | 1006.4 |
| 20260504191516 | 78 | 277 | 4.0 | 8.0 | 0.00 | 0.00 | 0.00 | 28 | 1006.3 |
| 20260504191034 | 78 | 276 | 2.0 | 6.0 | 0.00 | 0.00 | 0.00 | 27 | 1006.4 |
| 20260504190532 | 78 | 284 | 3.0 | 9.0 | 0.00 | 0.00 | 0.00 | 27 | 1006.0 |
| 20260504190031 | 77 | 279 | 2.0 | 6.0 | 0.00 | 0.00 | 0.00 | 27 | 1003.6 |
| 20260504185529 | 77 | 278 | 3.0 | 6.0 | 0.00 | 0.00 | 0.00 | 26 | 1006.7 |
| 20260504185047 | 77 | 308 | 3.0 | 8.0 | 0.00 | 0.00 | 0.00 | 28 | 1006.9 |
| 20260504184526 | 78 | 338 | 4.0 | 7.0 | 0.00 | 0.00 | 0.00 | 28 | 1007.0 |
| 20260504184045 | 77 | 343 | 2.0 | 4.0 | 0.00 | 0.00 | 0.00 | 28 | 1006.9 |
| 20260504183542 | 77 | 332 | 4.0 | 6.0 | 0.00 | 0.00 | 0.00 | 27 | 1003.9 |
| 20260504183021 | 77 | 301 | 2.0 | 6.0 | 0.00 | 0.00 | 0.00 | 27 | 1003.9 |
| 20260504182519 | 77 | 301 | 2.0 | 3.0 | 0.00 | 0.00 | 0.00 | 26 | 1007.2 |
| 20260504182017 | 77 | 283 | 2.0 | 4.0 | 0.00 | 0.00 | 0.00 | 27 | 1007.2 |
| 20260504181537 | 77 | 299 | 3.0 | 6.0 | 0.00 | 0.00 | 0.00 | 28 | 1005.7 |
| 20260504181035 | 76 | 301 | 2.0 | 6.0 | 0.00 | 0.00 | 0.00 | 27 | 1007.4 |
| 20260504180533 | 75 | 289 | 3.0 | 8.0 | 0.00 | 0.00 | 0.00 | 30 | 1007.4 |
| 20260504180031 | 75 | 277 | 2.0 | 4.0 | 0.00 | 0.00 | 0.00 | 28 | 1007.4 |
| 20260504175529 | 74 | 276 | 3.0 | 6.0 | 0.00 | 0.00 | 0.00 | 30 | 1004.4 |
| 20260504175028 | 74 | 289 | 3.0 | 6.0 | 0.00 | 0.00 | 0.00 | 32 | 1006.0 |
| 20260504174526 | 73 | 281 | 3.0 | 7.0 | 0.00 | 0.00 | 0.00 | 34 | 1007.5 |
| 20260504174024 | 73 | 279 | 3.0 | 3.0 | 0.00 | 0.00 | 0.00 | 33 | 1006.2 |
| 20260504173522 | 73 | 279 | 3.0 | 6.0 | 0.00 | 0.00 | 0.00 | 33 | 1006.1 |
| 20260504173021 | 73 | 285 | 4.0 | 7.0 | 0.00 | 0.00 | 0.00 | 34 | 1007.5 |
| 20260504172519 | 73 | 280 | 4.0 | 7.0 | 0.00 | 0.00 | 0.00 | 35 | 1007.5 |
| 20260504172017 | 73 | 288 | 3.0 | 7.0 | 0.00 | 0.00 | 0.00 | 35 | 1007.5 |
| 20260504171516 | 72 | 270 | 4.0 | 7.0 | 0.00 | 0.00 | 0.00 | 35 | 1007.0 |
| 20260504171035 | 72 | 281 | 4.0 | 7.0 | 0.00 | 0.00 | 0.00 | 35 | 1006.0 |
| 20260504170533 | 72 | 284 | 3.0 | 6.0 | 0.00 | 0.00 | 0.00 | 35 | 1007.6 |
| 20260504151034 | 62 | 142 | 1.0 | 3.0 | 0.00 | 0.00 | 0.00 | 37 | 1007.7 |
| 20260504150532 | 62 | 155 | 1.0 | 3.0 | 0.00 | 0.00 | 0.00 | 37 | 1007.7 |
| 20260504141034 | 57 | 0.0 | 0.0 | 0.00 | 0.00 | 0.00 | 40 | 1008.1 | |
| 20260504140532 | 56 | 234 | 1.0 | 3.0 | 0.00 | 0.00 | 0.00 | 41 | 1008.0 |
| 20260504130531 | 48 | 17 | 0.0 | 2.0 | 0.00 | 0.00 | 0.00 | 47 | 1007.6 |
| 20260504110531 | 43 | 90 | 3.0 | 4.0 | 0.00 | 0.00 | 0.00 | 54 | 1007.1 |
| 20260504100532 | 46 | 74 | 4.0 | 7.0 | 0.00 | 0.00 | 0.00 | 48 | 1007.0 |
| 20260504081516 | 51 | 86 | 2.0 | 4.0 | 0.00 | 0.00 | 0.00 | 39 | 1007.4 |
| 20260504081034 | 51 | 80 | 4.0 | 7.0 | 0.00 | 0.00 | 0.00 | 39 | 1007.4 |
| 20260504080532 | 51 | 62 | 2.0 | 3.0 | 0.00 | 0.00 | 0.00 | 39 | 1007.4 |
| 20260504050524 | 52 | 71 | 4.0 | 7.0 | 0.00 | 0.00 | 0.00 | 38 | 1008.2 |
| 20260504050022 | 52 | 80 | 3.0 | 6.0 | 0.00 | 0.00 | 0.00 | 39 | 1008.2 |
| 20260504045520 | 53 | 88 | 3.0 | 4.0 | 0.00 | 0.00 | 0.00 | 37 | 1008.3 |
| 20260504045019 | 54 | 93 | 2.0 | 4.0 | 0.00 | 0.00 | 0.00 | 35 | 1008.1 |
| 20260504044517 | 55 | 95 | 2.0 | 4.0 | 0.00 | 0.00 | 0.00 | 33 | 1008.3 |
| 20260504044015 | 55 | 81 | 3.0 | 7.0 | 0.00 | 0.00 | 0.00 | 32 | 1008.3 |
| 20260504043534 | 55 | 73 | 4.0 | 8.0 | 0.00 | 0.00 | 0.00 | 32 | 1008.2 |
| 20260504043033 | 55 | 72 | 5.0 | 8.0 | 0.00 | 0.00 | 0.00 | 32 | 1008.2 |
| 20260504042531 | 55 | 72 | 6.0 | 9.0 | 0.00 | 0.00 | 0.00 | 33 | 1008.2 |
| 20260504042029 | 55 | 72 | 3.0 | 6.0 | 0.00 | 0.00 | 0.00 | 35 | 1008.3 |
| 20260504041608 | 56 | 70 | 3.0 | 4.0 | 0.00 | 0.00 | 0.00 | 33 | 1008.3 |
| 20260504041026 | 56 | 70 | 2.0 | 3.0 | 0.00 | 0.00 | 0.00 | 31 | 1008.3 |
| 20260504040524 | 58 | 76 | 2.0 | 6.0 | 0.00 | 0.00 | 0.00 | 30 | 1008.3 |
| 20260504040023 | 58 | 51 | 3.0 | 7.0 | 0.00 | 0.00 | 0.00 | 27 | 1008.3 |
| 20260504035520 | 58 | 1 | 2.0 | 4.0 | 0.00 | 0.00 | 0.00 | 28 | 1008.2 |
| 20260504035018 | 58 | 26 | 4.0 | 8.0 | 0.00 | 0.00 | 0.00 | 26 | 1008.3 |
| 20260504034517 | 59 | 70 | 7.0 | 11.0 | 0.00 | 0.00 | 0.00 | 26 | 1008.2 |
| 20260504034035 | 59 | 70 | 8.0 | 13.0 | 0.00 | 0.00 | 0.00 | 26 | 1008.0 |
| 20260504033533 | 59 | 73 | 9.0 | 13.0 | 0.00 | 0.00 | 0.00 | 26 | 1008.0 |
| 20260504033031 | 59 | 73 | 8.0 | 13.0 | 0.00 | 0.00 | 0.00 | 26 | 1008.1 |
| 20260504032530 | 59 | 73 | 8.0 | 14.0 | 0.00 | 0.00 | 0.00 | 26 | 1008.1 |
| 20260504032028 | 60 | 75 | 7.0 | 13.0 | 0.00 | 0.00 | 0.00 | 26 | 1008.2 |
| 20260504031526 | 60 | 73 | 8.0 | 13.0 | 0.00 | 0.00 | 0.00 | 26 | 1008.1 |
| 20260504031025 | 59 | 69 | 8.0 | 14.0 | 0.00 | 0.00 | 0.00 | 27 | 1008.0 |
| 20260504030523 | 59 | 74 | 8.0 | 13.0 | 0.00 | 0.00 | 0.00 | 28 | 1008.0 |
| 20260504030021 | 59 | 73 | 7.0 | 11.0 | 0.00 | 0.00 | 0.00 | 29 | 1008.0 |
| 20260504025520 | 60 | 80 | 7.0 | 10.0 | 0.00 | 0.00 | 0.00 | 30 | 1007.9 |
| 20260504025018 | 60 | 84 | 7.0 | 13.0 | 0.00 | 0.00 | 0.00 | 29 | 1008.0 |
| 20260504024516 | 61 | 69 | 8.0 | 14.0 | 0.00 | 0.00 | 0.00 | 29 | 1008.1 |
| 20260504024035 | 61 | 71 | 8.0 | 14.0 | 0.00 | 0.00 | 0.00 | 29 | 1008.0 |
| 20260504023533 | 61 | 78 | 8.0 | 14.0 | 0.00 | 0.00 | 0.00 | 29 | 1008.0 |
| 20260504023052 | 61 | 73 | 8.0 | 13.0 | 0.00 | 0.00 | 0.00 | 30 | 1008.0 |
| 20260504022551 | 60 | 66 | 8.0 | 11.0 | 0.00 | 0.00 | 0.00 | 31 | 1008.1 |
| 20260504022048 | 60 | 58 | 6.0 | 10.0 | 0.00 | 0.00 | 0.00 | 32 | 1008.1 |
| 20260504021526 | 61 | 44 | 6.0 | 9.0 | 0.00 | 0.00 | 0.00 | 32 | 1008.1 |
| 20260504021025 | 62 | 2 | 6.0 | 9.0 | 0.00 | 0.00 | 0.00 | 33 | 1008.0 |
| 20260504020523 | 63 | 348 | 4.0 | 7.0 | 0.00 | 0.00 | 0.00 | 33 | 1008.1 |
| 20260504020033 | 65 | 317 | 3.0 | 6.0 | 0.00 | 0.00 | 0.00 | 32 | 1008.3 |
| 20260504015540 | 66 | 317 | 3.0 | 4.0 | 0.00 | 0.00 | 0.00 | 29 | 1008.3 |
| 20260504015017 | 68 | 317 | 3.0 | 3.0 | 0.00 | 0.00 | 0.00 | 31 | 1008.3 |
| 20260504014516 | 71 | 316 | 2.0 | 3.0 | 0.00 | 0.00 | 0.00 | 26 | 1008.3 |
| 20260504014034 | 71 | 316 | 0.0 | 1.0 | 0.00 | 0.00 | 0.00 | 19 | 1008.3 |
| 20260504013533 | 72 | 316 | 1.0 | 2.0 | 0.00 | 0.00 | 0.00 | 19 | 1008.4 |
| 20260504013031 | 72 | 316 | 1.0 | 3.0 | 0.00 | 0.00 | 0.00 | 20 | 1008.4 |
| 20260504012529 | 72 | 316 | 2.0 | 3.0 | 0.00 | 0.00 | 0.00 | 18 | 1008.5 |
| 20260504012028 | 73 | 317 | 2.0 | 4.0 | 0.00 | 0.00 | 0.00 | 19 | 1008.5 |
| 20260504011526 | 74 | 316 | 1.0 | 3.0 | 0.00 | 0.00 | 0.00 | 19 | 1008.6 |
| 20260504011024 | 75 | 316 | 0.0 | 1.0 | 0.00 | 0.00 | 0.00 | 19 | 1008.7 |
| 20260504010522 | 75 | 316 | 0.0 | 1.0 | 0.00 | 0.00 | 0.00 | 18 | 1008.7 |
| 20260504010021 | 75 | 316 | 1.0 | 4.0 | 0.00 | 0.00 | 0.00 | 18 | 1008.8 |
| 20260504005539 | 76 | 316 | 2.0 | 3.0 | 0.00 | 0.00 | 0.00 | 18 | 1008.9 |
| 20260504005017 | 76 | 316 | 1.0 | 4.0 | 0.00 | 0.00 | 0.00 | 18 | 1008.9 |
| 20260504004515 | 76 | 316 | 1.0 | 4.0 | 0.00 | 0.00 | 0.00 | 18 | 1008.8 |